Location: Newark
(12.4436°N, 0.6167°W)
Time: 05:30:06
(UTC+00:00)

Vanguard 2 - Pass Details

Date: 10 December 2019
Orbit: 553 x 2938 km, 32.9° (Epoch: 23 January)

Event Time Altitude Azimuth Distance (km) Brightness Sun altitude
Rises 03:37:20 0° 287° (WNW) 6,375 - -36.3°
Reaches altitude 10° 03:42:03 10° 296° (WNW) 5,565 - -35.2°
Exits shadow 03:53:12 32° 333° (NNW) 4,179 10.8 -32.7°
Maximum altitude 03:57:30 36° 357° (N) 3,994 10.9 -31.7°
Drops below altitude 10° 04:11:55 10° 59° (ENE) 5,195 12.2 -28.4°
Sets 04:16:08 0° 68° (ENE) 5,925 12.7 -27.4°
